*** The Vicarage Weather Feed ***

NOAA NWS Hourly Roundups by Site

Regional Weather Roundup for Omaha, NE

To Select Another Site Choose from List

Select Site:  

000
ASUS43 KOAX 191510
RWRNE

WEATHER ROUNDUP FOR NEBRASKA
NATIONAL WEATHER SERVICE OMAHA NE
1000 AM CDT THU APR 19 2018

NOTES: SATELLITE DATA IS BEING USED TO AUGMENT CLOUD COVER ABOVE
       12000 FEET.
       "FAIR" INDICATES FEW OR NO CLOUDS BELOW 12,000 FEET WITH NO
       SIGNIFICANT WEATHER AND/OR OBSTRUCTIONS TO VISIBILITY.


NEZ001>004-019>022-054>056-191600-
NEBRASKA PANHANDLE

CITY           SKY/WX    TMP DP  RH WIND       PRES   REMARKS
SCOTTSBLUFF    SUNNY     43  33  68 SE15      30.32F
ALLIANCE       SUNNY     43  35  73 S17       30.34F
CHADRON        SUNNY     46  36  68 VRB6      30.34F
GORDON         FAIR      44  36  75 SW8       30.36F
KIMBALL        MOSUNNY   41  25  52 SE14      30.31S
SIDNEY         SUNNY     44  32  62 S20       30.35S
$$

NEZ057>060-069>072-079>082-191600-
SOUTHWEST NEBRASKA

CITY           SKY/WX    TMP DP  RH WIND       PRES   REMARKS
NORTH PLATTE   SUNNY     40  33  76 VRB3      30.43S
IMPERIAL       SUNNY     43  34  70 E7        30.40S
LEXINGTON      SUNNY     40  32  73 CALM      30.46R
MCCOOK         SUNNY     41  31  67 E7        30.44S
OGALLALA       SUNNY     44  35  71 SE7       30.40S
$$

NEZ005>010-023>029-035>040-094-191600-
NORTH CENTRAL NEBRASKA

CITY           SKY/WX    TMP DP  RH WIND       PRES   REMARKS
VALENTINE      SUNNY     39  34  82 MISG      30.42S
AINSWORTH      SUNNY     39  32  76 S5        30.44R
BROKEN BOW     SUNNY     42  31  64 CALM      30.44R
O`NEILL        SUNNY     41  33  73 CALM      30.47R
ORD            SUNNY     39  33  79 VRB5      30.45S
THEDFORD       SUNNY     42  33  73 SE3       30.43R
$$

NEZ041-046>049-061>064-073>077-083>087-191600-
SOUTH CENTRAL NEBRASKA

CITY           SKY/WX    TMP DP  RH WIND       PRES   REMARKS
GRAND ISLAND   SUNNY     40  31  70 N6        30.47R
AURORA         SUNNY     39  31  71 N5        30.47R
HASTINGS       SUNNY     42  31  64 N6        30.47R
HEBRON         SUNNY     42  31  65 CALM      30.48R
HOLDREGE       SUNNY     40  34  78 CALM      30.45S
KEARNEY        SUNNY     40  32  73 N5        30.47R
YORK             N/A     39  36  87 CALM      30.47R
$$

NEZ011>018-030>034-042>045-191600-
NORTHEAST NEBRASKA

CITY           SKY/WX    TMP DP  RH WIND       PRES   REMARKS
NORFOLK        SUNNY     41  26  55 VRB3      30.45R
ALBION         SUNNY     42  28  59 E6        30.47R
BLAIR          SUNNY     41  30  66 NE6       30.45R
COLUMBUS       SUNNY     41  29  62 CALM      30.49R
FREMONT        SUNNY     42  30  61 E5        30.47R
TEKAMAH        SUNNY     39  31  72 VRB3      30.47R
WAYNE          SUNNY     39  28  66 CALM      30.47R
$$

NEZ050>053-065>068-078-088>093-191600-
SOUTHEAST NEBRASKA

CITY           SKY/WX    TMP DP  RH WIND       PRES   REMARKS
LINCOLN        SUNNY     43  31  62 CALM      30.48R
OMAHA EPPLEY   SUNNY     42  32  67 N3        30.46R
BEATRICE       SUNNY     44  33  66 N3        30.47R
FALLS CITY     SUNNY     44  29  55 N13       30.45S
NEBRASKA CITY  SUNNY     42  33  70 NE8       30.46R
PLATTSMOUTH    SUNNY     42  31  66 NE5       30.46R
$$

NEZ044-045-051>053-067-191600-
OMAHA AREA

CITY           SKY/WX    TMP DP  RH WIND       PRES   REMARKS
OMAHA EPPLEY   SUNNY     42  32  67 N3        30.46R
BLAIR          SUNNY     41  30  66 NE6       30.45R
FREMONT        SUNNY     42  30  61 E5        30.47R
MILLARD        SUNNY     43  30  59 NE3       30.47R
OFFUTT AFB     SUNNY     42  32  66 N3        30.45R
PLATTSMOUTH    SUNNY     42  31  66 NE5       30.46R
WAHOO          FAIR      43  29  58 NE6       30.46S
$$



 

View Past Reports for Omaha, NE.

Products Courtesy of NOAA-NWS
NWS Information Parsing Script by Ken True at Saratoga Weather - Script by SE Lincoln Weather.

This data is offered only as a general guide to local weather conditions. It should not be relied upon in lieu of officially disseminated weather information for determining possible risk to persons or property. This site, including all information contained therein, is made available as is without warranties of any kind, either express or implied. The Vicarage Weather Feed© includes links to other sites for user convenience only. The content of any linked third-party site is not controlled by The Vicarage Weather Feed©. Access to any third-party website through The Vicarage Weather Feed©, regardless of whether or not the third-party site is a linked site, is entirely at the users own risk. Externally sourced content or material is excluded from The Vicarage Weather Feed© copyright and is the copyright and property of the respective provider. Skywarn® and the Skywarn® logo are registered trademarks of the National Oceanic and Atmospheric Administration, used with permission.